Regional Weather Roundup
Issued by NWS Huntsville, AL

Home | Current Version | Previous Version | Text Only | Print | Product List | Glossary On
Versions: 1 2 3 4 5 6 7 8 9 10 11 12 13 14 15 16 17 18 19 20 21 22 23 24 25 26 27 28
000
ASUS44 KHUN 250810
RWRHUN

WEATHER ROUNDUP FOR THE TENNESSEE VALLEY
NATIONAL WEATHER SERVICE HUNTSVILLE AL
200 AM CST SAT FEB 25 2017

ALZ001>004-250900-
NORTHWEST ALABAMA

CITY           SKY/WX    TMP DP  RH WIND       PRES   REMARKS
SHOALS AIRPORT CLOUDY    56  30  37 NW16      29.85R
SHOALS TVA RES   N/A     57 N/A N/A MISG        N/A
$$

ALZ005>007-016-250900-
NORTH CENTRAL ALABAMA

CITY           SKY/WX    TMP DP  RH WIND       PRES   REMARKS
DECATUR AP     MOCLDY    57  42  57 NW9       29.79R
HUNTSVILLE AP  MOCLDY    58  42  55 NW13      29.78R
MERIDIANVILLE  CLOUDY    57  41  54 NW13G20   29.79R
REDSTONE ARSN  CLOUDY    58  44  58 NW14      29.77R
VINEMONT AP    CLOUDY    58  43  58 NW12G23   29.81R
$$

ALZ008>010-250900-
NORTHEAST ALABAMA

CITY           SKY/WX    TMP DP  RH WIND       PRES   REMARKS
ALBERTVILLE    LGT RAIN  59  59 100 W7        29.75S
FORT PAYNE     LGT RAIN  59  54  82 SW12G17   29.74R
SCOTTSBORO AP  LGT RAIN  61  61 100 W5        29.75R
SCOTTSBORO HCN   N/A     61 N/A N/A MISG        N/A
VALLEY HEAD      N/A     63 N/A N/A MISG        N/A
$$

TNZ076-096-097-250900-
SOUTHEASTERN MIDDLE TENNESSEE

CITY           SKY/WX    TMP DP  RH WIND       PRES   REMARKS
TULLAHOMA      CLOUDY    54  43  66 NW12      29.77R
WINCHESTER     MOCLDY    57  48  72 NW7       29.76R
$$

...SURROUNDING SITES...

CITY           SKY/WX    TMP DP  RH WIND       PRES   REMARKS
ATLANTA        PTCLDY    65  57  75 SW9       29.78S
ANNISTON       MOCLDY    65  59  81 SW9       29.76F
BIRMINGHAM     CLOUDY    66  60  81 SW9       29.79S
CHATTANOOGA    TSTM      61  57  87 S5        29.73R
CORINTH        FAIR      50  34  53 NW12G18   29.87R
DALTON         CLOUDY    64  55  72 S5        29.72S
GADSDEN        CLOUDY    65  59  81 S5        29.74F
GOLDEN TRNGL   CLOUDY    57  43  58 NW18G28   29.84R
HALEYVILLE     CLOUDY    56  39  53 NW6       29.85R
JACKSON TN     CLEAR     47  31  53 W12       29.90R
MEMPHIS        CLEAR     44  29  55 NW23G30   29.94R
NASHVILLE      CLOUDY    57  28  33 W20G32    29.79R
OXFORD MS      FAIR      48  32  53 NW15G21   29.94R
ROME           CLOUDY    68  56  65 SW6       29.72F
SAVANNAH       CLOUDY    50  32  50 NW7G15    29.86R
TUPELO         PTCLDY    54  30  40 NW17G24   29.88R
TUSCALOOSA     CLOUDY    66  60  81 W13G20    29.79R
$$

...GULF COAST WEATHER...

CITY           SKY/WX    TMP DP  RH WIND       PRES   REMARKS
GULFPORT       PTCLDY    65  64  97 W3        29.85S
PASCAGOULA     PTCLDY    66  63  90 W3        29.85S
MOBILE         PTCLDY    66  63  90 SW6       29.86S
GULF SHORES    PTSUNNY   67  67 100 W8        29.86R
PENSACOLA      MOCLDY    68  67  96 CALM      29.84S
DESTIN         PTCLDY    70  70 100 W5        29.84S
PANAMA CITY    CLEAR     65  64  96 W6        29.84S
APPALACHICOLA  CLEAR     64  64 100 W6        29.83R
$$





USA.gov is the U.S. government's official web portal to all federal, state and local government web resources and services.